Location: *
(2.5500°S, 65.9667°W)
Time: 11:37:44
(UTC+00:00)

Cosmos 2056 Rocket - Pass Details

Date: 26 October 2021
Orbit: 742 x 801 km, 74.0° (Epoch: 29 November)

Event Time Altitude Azimuth Distance (km) Brightness Sun altitude
Rises 22:29:37 0° 188° (S) 3,234 7.0 -4.8°
Reaches altitude 10° 22:32:02 10° 186° (S) 2,296 6.2 -5.3°
Maximum altitude 22:37:12 71° 102° (ESE) 796 3.5 -6.6°
Drops below altitude 10° 22:42:17 10° 19° (NNE) 2,253 5.6 -7.8°
Sets 22:44:37 0° 17° (NNE) 3,168 6.4 -8.4°
